Lubbock Preston Smith International Airport
KLBB : now visible

Airfield :











YOU CAN JOIN US ON...

 
LOGIN :

Register | Disclaimer

   EN    FR    IT 

 









Legend :    VFR   Marginal VFR   IFR   Intensive IFR   Very Intensive IFR
Visi :
Ceiling :
>= 8 km
>= 3000ft
5 to 8 km
1000 to 3000 ft
1500m to 5 km
500 to 1000 ft
800 to 1500m
200 to 500 ft
< 800m
< 200 ft
Symbols :   Thunderstorms  Fog  Heavy snow  Heavy precipitations  Wind > 20 kt






- Airport Elevation : 3282 ft
- IATA code : LBB


KLBB - Lubbock Preston Smith International

CURRENT METAR :
  • 250653Z 24010KT 10SM SCT240 BKN300 16/04 A2981 RMK AO2 SLP063 BKN LYR THN T01560044

EXPIRED METARs :
  • 250553Z 23009KT 10SM FEW250 SCT300 16/04 A2983 RMK AO2 SLP073 T01610044 10206 20161 402171006 58005
  • 250453Z 22009KT 10SM SCT260 BKN300 17/04 A2985 RMK AO2 SLP080 T01720039

TAF KLBB
Valid from the 25 at 06:00 until the 26 at 06:00 UTC


250520Z 2506/2606 20015KT P6SM FEW250
FM251500 35015KT P6SM SCT250
FM260100 04018KT P6SM OVC030
KZFW FIR / North America



MET'MAP, your aeronautical weather chart ! - Copyright ORBIFLY December 2007 - Disclaimer

ORBIFLY MET'MAP TEAM :

Programming & Development : Alexandra Zaïnal
Concept & original design : Baudouin d'Aumeries
Assistance for programming : Marc-Olivier Méhu
Technical & hardware support : Manuel Goepfert

Contact : metmap@orbifly.com




SOURCES & CREDITS :

   NOAA       Earth
Advisory